Time,TemperatureF,DewpointF,PressureIn,WindDirection,WindDirectionDegrees,WindSpeedMPH,WindSpeedGustMPH,Humidity,HourlyPrecipIn,Conditions,Clouds,dailyrainin,SolarRadiationWatts/m^2,SoftwareType,DateUTC
2013-04-05 00:02:00,30.0,14.0,-100.00,NNW,344,3.0,7.0,50,0.00,,,0.00,0.000000,,2013-04-05 05:02:00,
2013-04-05 00:12:00,30.0,14.0,-100.00,NNW,344,3.0,7.0,50,0.00,,,0.00,0.000000,,2013-04-05 05:12:00,
2013-04-05 00:42:00,30.0,11.0,-100.00,North,349,3.0,6.0,45,0.00,,,0.00,0.000000,,2013-04-05 05:42:00,
2013-04-05 00:53:00,30.0,11.0,-100.00,North,349,3.0,6.0,45,0.00,,,0.00,0.000000,,2013-04-05 05:53:00,
2013-04-05 01:02:00,30.0,11.0,-100.00,North,349,3.0,6.0,45,0.00,,,0.00,0.000000,,2013-04-05 06:02:00,
2013-04-05 01:12:00,30.0,11.0,-100.00,North,349,3.0,6.0,45,0.00,,,0.00,0.000000,,2013-04-05 06:12:00,
2013-04-05 01:42:00,26.0,12.0,-100.00,NNW,333,0.0,8.0,55,0.00,,,0.00,0.000000,,2013-04-05 06:42:00,
2013-04-05 01:52:00,26.0,12.0,-100.00,NNW,333,0.0,8.0,55,0.00,,,0.00,0.000000,,2013-04-05 06:52:00,
2013-04-05 02:02:00,26.0,12.0,-100.00,NNW,333,0.0,8.0,55,0.00,,,0.00,0.000000,,2013-04-05 07:02:00,
2013-04-05 02:12:00,26.0,12.0,-100.00,NNW,333,0.0,8.0,55,0.00,,,0.00,0.000000,,2013-04-05 07:12:00,
2013-04-05 02:42:00,24.0,13.0,-100.00,NW,323,1.0,5.0,61,0.00,,,0.00,0.000000,,2013-04-05 07:42:00,
2013-04-05 02:53:00,24.0,13.0,-100.00,NW,323,1.0,5.0,61,0.00,,,0.00,0.000000,,2013-04-05 07:53:00,
2013-04-05 03:02:00,24.0,13.0,-100.00,NW,323,1.0,5.0,61,0.00,,,0.00,0.000000,,2013-04-05 08:02:00,
2013-04-05 03:12:00,24.0,13.0,-100.00,NW,323,1.0,5.0,61,0.00,,,0.00,0.000000,,2013-04-05 08:12:00,
2013-04-05 03:43:00,20.0,14.0,-100.00,NW,315,0.0,3.0,78,0.00,,,0.00,0.000000,,2013-04-05 08:43:00,
2013-04-05 03:52:00,20.0,14.0,-100.00,NW,315,0.0,3.0,78,0.00,,,0.00,0.000000,,2013-04-05 08:52:00,
2013-04-05 04:02:00,20.0,14.0,-100.00,NW,315,0.0,3.0,78,0.00,,,0.00,0.000000,,2013-04-05 09:02:00,
2013-04-05 04:12:00,20.0,14.0,-100.00,NW,315,0.0,3.0,78,0.00,,,0.00,0.000000,,2013-04-05 09:12:00,
2013-04-05 04:43:00,18.0,13.0,-100.00,WNW,301,0.0,3.0,81,0.00,,,0.00,0.000000,,2013-04-05 09:43:00,
2013-04-05 04:53:00,18.0,13.0,-100.00,WNW,301,0.0,3.0,81,0.00,,,0.00,0.000000,,2013-04-05 09:53:00,
2013-04-05 05:03:00,18.0,13.0,-100.00,WNW,301,0.0,3.0,81,0.00,,,0.00,0.000000,,2013-04-05 10:03:00,
2013-04-05 05:13:00,18.0,13.0,-100.00,WNW,301,0.0,3.0,81,0.00,,,0.00,0.000000,,2013-04-05 10:13:00,
2013-04-05 05:43:00,17.0,14.0,-100.00,WNW,296,0.0,1.0,86,0.00,,,0.00,0.000000,,2013-04-05 10:43:00,
2013-04-05 05:53:00,17.0,14.0,-100.00,WNW,296,0.0,1.0,86,0.00,,,0.00,0.000000,,2013-04-05 10:53:00,
2013-04-05 06:02:00,17.0,14.0,-100.00,WNW,296,0.0,1.0,86,0.00,,,0.00,0.000000,,2013-04-05 11:02:00,
2013-04-05 06:12:00,17.0,14.0,-100.00,WNW,296,0.0,1.0,86,0.00,,,0.00,0.000000,,2013-04-05 11:12:00,
2013-04-05 06:42:00,16.0,13.0,-100.00,NNW,335,0.0,0.0,86,0.00,,,0.00,0.000000,,2013-04-05 11:42:00,
2013-04-05 06:52:00,16.0,13.0,-100.00,NNW,335,0.0,0.0,86,0.00,,,0.00,0.000000,,2013-04-05 11:52:00,
2013-04-05 07:02:00,16.0,13.0,-100.00,NNW,335,0.0,0.0,86,0.00,,,0.00,0.000000,,2013-04-05 12:02:00,
2013-04-05 07:12:00,16.0,13.0,-100.00,NNW,335,0.0,0.0,86,0.00,,,0.00,0.000000,,2013-04-05 12:12:00,
2013-04-05 07:42:00,16.0,13.0,-100.00,NNW,327,0.0,0.0,88,0.00,,,0.00,8.000000,,2013-04-05 12:42:00,
2013-04-05 07:52:00,16.0,13.0,-100.00,NNW,327,0.0,0.0,88,0.00,,,0.00,8.000000,,2013-04-05 12:52:00,
2013-04-05 08:02:00,16.0,13.0,-100.00,NNW,327,0.0,0.0,88,0.00,,,0.00,8.000000,,2013-04-05 13:02:00,
2013-04-05 08:12:00,16.0,13.0,-100.00,NNW,327,0.0,0.0,88,0.00,,,0.00,8.000000,,2013-04-05 13:12:00,
2013-04-05 08:42:00,29.0,15.0,-100.00,ENE,59,4.0,7.0,56,0.00,,,0.00,155.000000,,2013-04-05 13:42:00,
2013-04-05 08:52:00,29.0,15.0,-100.00,ENE,59,4.0,7.0,56,0.00,,,0.00,155.000000,,2013-04-05 13:52:00,
2013-04-05 09:03:00,29.0,15.0,-100.00,ENE,59,4.0,7.0,56,0.00,,,0.00,155.000000,,2013-04-05 14:03:00,
2013-04-05 09:12:00,29.0,15.0,-100.00,ENE,59,4.0,7.0,56,0.00,,,0.00,155.000000,,2013-04-05 14:12:00,
2013-04-05 09:43:00,33.0,15.0,-100.00,East,82,6.0,13.0,48,0.00,,,0.00,330.000000,,2013-04-05 14:43:00,
2013-04-05 09:54:00,33.0,15.0,-100.00,East,82,6.0,13.0,48,0.00,,,0.00,330.000000,,2013-04-05 14:54:00,
2013-04-05 10:02:00,33.0,15.0,-100.00,East,82,6.0,13.0,48,0.00,,,0.00,330.000000,,2013-04-05 15:02:00,
2013-04-05 10:12:00,33.0,15.0,-100.00,East,82,6.0,13.0,48,0.00,,,0.00,330.000000,,2013-04-05 15:12:00,
2013-04-05 10:43:00,37.0,14.0,-100.00,ESE,114,6.0,12.0,38,0.00,,,0.00,495.000000,,2013-04-05 15:43:00,
2013-04-05 10:54:00,37.0,14.0,-100.00,ESE,114,6.0,12.0,38,0.00,,,0.00,495.000000,,2013-04-05 15:54:00,
2013-04-05 11:02:00,37.0,14.0,-100.00,ESE,114,6.0,12.0,38,0.00,,,0.00,495.000000,,2013-04-05 16:02:00,
2013-04-05 11:13:00,37.0,14.0,-100.00,ESE,114,6.0,12.0,38,0.00,,,0.00,495.000000,,2013-04-05 16:13:00,
2013-04-05 11:43:00,40.0,13.0,-100.00,ESE,110,5.0,13.0,33,0.00,,,0.00,645.000000,,2013-04-05 16:43:00,
2013-04-05 11:53:00,40.0,13.0,-100.00,ESE,110,5.0,13.0,33,0.00,,,0.00,645.000000,,2013-04-05 16:53:00,
2013-04-05 12:03:00,40.0,13.0,-100.00,ESE,110,5.0,13.0,33,0.00,,,0.00,645.000000,,2013-04-05 17:03:00,
2013-04-05 12:13:00,40.0,13.0,-100.00,ESE,110,5.0,13.0,33,0.00,,,0.00,645.000000,,2013-04-05 17:13:00,
2013-04-05 12:45:00,41.0,13.0,-100.00,ENE,74,5.0,12.0,31,0.00,,,0.00,642.000000,,2013-04-05 17:45:00,
2013-04-05 12:53:00,41.0,13.0,-100.00,ENE,74,5.0,12.0,31,0.00,,,0.00,642.000000,,2013-04-05 17:53:00,
2013-04-05 13:02:00,41.0,13.0,-100.00,ENE,74,5.0,12.0,31,0.00,,,0.00,642.000000,,2013-04-05 18:02:00,
2013-04-05 13:12:00,41.0,13.0,-100.00,ENE,74,5.0,12.0,31,0.00,,,0.00,642.000000,,2013-04-05 18:12:00,
2013-04-05 13:43:00,41.0,12.0,-100.00,South,174,4.0,13.0,30,0.00,,,0.00,498.000000,,2013-04-05 18:43:00,
2013-04-05 13:53:00,41.0,12.0,-100.00,South,174,4.0,13.0,30,0.00,,,0.00,498.000000,,2013-04-05 18:53:00,
2013-04-05 14:02:00,41.0,12.0,-100.00,South,174,4.0,13.0,30,0.00,,,0.00,498.000000,,2013-04-05 19:02:00,
2013-04-05 14:13:00,41.0,12.0,-100.00,South,174,4.0,13.0,30,0.00,,,0.00,498.000000,,2013-04-05 19:13:00,
2013-04-05 14:43:00,41.0,13.0,-100.00,SSE,165,4.0,11.0,31,0.00,,,0.00,378.000000,,2013-04-05 19:43:00,
2013-04-05 14:53:00,41.0,13.0,-100.00,SSE,165,4.0,11.0,31,0.00,,,0.00,378.000000,,2013-04-05 19:53:00,
2013-04-05 15:02:00,41.0,13.0,-100.00,SSE,165,4.0,11.0,31,0.00,,,0.00,378.000000,,2013-04-05 20:02:00,
2013-04-05 15:11:00,41.0,13.0,-100.00,SSE,165,4.0,11.0,31,0.00,,,0.00,378.000000,,2013-04-05 20:11:00,
2013-04-05 15:43:00,41.0,13.0,-100.00,SE,146,6.0,11.0,31,0.00,,,0.00,224.000000,,2013-04-05 20:43:00,
2013-04-05 15:53:00,41.0,13.0,-100.00,SE,146,6.0,11.0,31,0.00,,,0.00,224.000000,,2013-04-05 20:53:00,
2013-04-05 16:02:00,41.0,13.0,-100.00,SE,146,6.0,11.0,31,0.00,,,0.00,224.000000,,2013-04-05 21:02:00,
2013-04-05 16:12:00,41.0,13.0,-100.00,SE,146,6.0,11.0,31,0.00,,,0.00,224.000000,,2013-04-05 21:12:00,
2013-04-05 16:44:00,41.0,13.0,-100.00,ESE,119,8.0,14.0,31,0.00,,,0.00,289.000000,,2013-04-05 21:44:00,
2013-04-05 16:55:00,41.0,13.0,-100.00,ESE,119,8.0,14.0,31,0.00,,,0.00,289.000000,,2013-04-05 21:55:00,
2013-04-05 17:03:00,41.0,13.0,-100.00,ESE,119,8.0,14.0,31,0.00,,,0.00,289.000000,,2013-04-05 22:03:00,
2013-04-05 17:13:00,41.0,13.0,-100.00,ESE,119,8.0,14.0,31,0.00,,,0.00,289.000000,,2013-04-05 22:13:00,
2013-04-05 17:44:00,40.0,13.0,-100.00,ESE,119,7.0,13.0,32,0.00,,,0.00,174.000000,,2013-04-05 22:44:00,
2013-04-05 17:53:00,40.0,13.0,-100.00,ESE,119,7.0,13.0,32,0.00,,,0.00,174.000000,,2013-04-05 22:53:00,
2013-04-05 18:02:00,40.0,13.0,-100.00,ESE,119,7.0,13.0,32,0.00,,,0.00,174.000000,,2013-04-05 23:02:00,
2013-04-05 18:12:00,40.0,13.0,-100.00,ESE,119,7.0,13.0,32,0.00,,,0.00,174.000000,,2013-04-05 23:12:00,
2013-04-05 18:43:00,39.0,13.0,-100.00,SE,140,6.0,12.0,34,0.00,,,0.00,78.000000,,2013-04-05 23:43:00,
2013-04-05 18:53:00,39.0,13.0,-100.00,SE,140,6.0,12.0,34,0.00,,,0.00,78.000000,,2013-04-05 23:53:00,
2013-04-05 19:02:00,39.0,13.0,-100.00,SE,140,6.0,12.0,34,0.00,,,0.00,78.000000,,2013-04-06 00:02:00,
2013-04-05 19:13:00,39.0,13.0,-100.00,SE,140,6.0,12.0,34,0.00,,,0.00,78.000000,,2013-04-06 00:13:00,
2013-04-05 19:43:00,38.0,13.0,-100.00,SE,126,5.0,13.0,35,0.00,,,0.00,29.000000,,2013-04-06 00:43:00,
2013-04-05 19:52:00,38.0,13.0,-100.00,SE,126,5.0,13.0,35,0.00,,,0.00,29.000000,,2013-04-06 00:52:00,
2013-04-05 20:02:00,38.0,13.0,-100.00,SE,126,5.0,13.0,35,0.00,,,0.00,29.000000,,2013-04-06 01:02:00,
2013-04-05 20:12:00,38.0,13.0,-100.00,SE,126,5.0,13.0,35,0.00,,,0.00,29.000000,,2013-04-06 01:12:00,
2013-04-05 20:43:00,36.0,21.0,-100.00,SSE,156,7.0,12.0,53,0.00,,,0.00,3.000000,,2013-04-06 01:43:00,
2013-04-05 20:53:00,36.0,21.0,-100.00,SSE,156,7.0,12.0,53,0.00,,,0.00,3.000000,,2013-04-06 01:53:00,
2013-04-05 21:02:00,36.0,21.0,-100.00,SSE,156,7.0,12.0,53,0.00,,,0.00,3.000000,,2013-04-06 02:02:00,
2013-04-05 21:12:00,36.0,21.0,-100.00,SSE,156,7.0,12.0,53,0.00,,,0.00,3.000000,,2013-04-06 02:12:00,
2013-04-05 21:43:00,34.0,25.0,-100.00,SE,128,4.0,14.0,69,0.00,,,0.00,0.000000,,2013-04-06 02:43:00,
2013-04-05 21:53:00,34.0,25.0,-100.00,SE,128,4.0,14.0,69,0.00,,,0.00,0.000000,,2013-04-06 02:53:00,
2013-04-05 22:02:00,34.0,25.0,-100.00,SE,128,4.0,14.0,69,0.00,,,0.00,0.000000,,2013-04-06 03:02:00,
2013-04-05 22:12:00,34.0,25.0,-100.00,SE,128,4.0,14.0,69,0.00,,,0.00,0.000000,,2013-04-06 03:12:00,
2013-04-05 22:43:00,32.0,28.0,-100.00,ESE,120,4.0,10.0,86,0.00,,,0.00,0.000000,,2013-04-06 03:43:00,
2013-04-05 22:54:00,32.0,28.0,-100.00,ESE,120,4.0,10.0,86,0.00,,,0.00,0.000000,,2013-04-06 03:54:00,
2013-04-05 23:03:00,32.0,28.0,-100.00,ESE,120,4.0,10.0,86,0.00,,,0.00,0.000000,,2013-04-06 04:03:00,
2013-04-05 23:13:00,32.0,28.0,-100.00,ESE,120,4.0,10.0,86,0.00,,,0.00,0.000000,,2013-04-06 04:13:00,
2013-04-05 23:43:00,32.0,29.0,-100.00,East,87,5.0,11.0,87,0.00,,,0.00,0.000000,,2013-04-06 04:43:00,
2013-04-05 23:53:00,32.0,29.0,-100.00,East,87,5.0,11.0,87,0.00,,,0.00,0.000000,,2013-04-06 04:53:00,